Starlink 33849

operational
NORAD ID: 63654 Int'l Des: 2025-083 Owner: SPXS Country: US Constellation: starlink
LEOCIRCULAR

About Starlink 33849

Description loading...

Live Position

Loading 3D Globe...

Upcoming Passes

Altitude History

Altitude vs Time

uPlot chart will show altitude changes over time

Two-Line Element Set

1 63654U 25083W 26034.48492175 .00039632 00000-0 14402-2 0 9993
2 63654 42.9977 198.5486 0001366 169.5485 190.5395 15.27621355 44837
Epoch: Feb 3, 2026 • Age: 12 hours

Current Status

Altitude 481.1 km
Velocity 7.63 km/s
Sub-Earth Point 17.59°N, 127.49°W
Launch Date Apr 25, 2025
Age 0.7 years
Type internet

Technical Details

Classification Payload
Mass 575.00 kg
Dry Mass 530.00 kg
Total Mass 575.00 kg
Length 0.30 m
Diameter 4.10 m
Span 29.00 m
Shape Box + pan
Manufacturer SPXS
Bus Type Starlink V2MO
Phase Status In Orbit
Owner/State SPXS/US

Large Constellations

Loading constellations...